Theta_e
312 313 313 313 312 312 313 313 312 312 312 312 312 312 312 312 312 312 312 312 313 313 313 313 314 314 314 314 314 315 314 315 316 315 314 316 321 321 323 320 322 327 325 315 315 314 310 311 310 313 310 309 308 306 311 310 310 308 302 300 298 301 300 304 303 304 305 304 306 306 307 306 304 309 313 317 313 312 314 315 320 325 325 330 333 339 342 345
312 313 313 312 312 312 313 313 314 314 314 313 313 313 313 312 312 312 312 312 313 313 313 314 314 314 314 314 314 315 314 315 314 314 312 321 326 325 326 326 324 326 323 313 312 311 309 308 309 310 307 305 310 306 311 307 310 304 302 301 298 302 304 307 306 306 304 304 307 307 307 306 306 308 312 311 310 309 309 313 322 322 325 333 337 339 339 342
312 312 312 313 313 314 314 314 314 314 314 314 314 314 313 313 313 313 312 312 312 313 314 314 314 314 314 314 314 315 315 314 315 312 316 325 324 324 325 327 323 324 315 313 314 312 310 310 310 308 307 305 307 305 307 306 307 305 302 299 301 305 306 306 306 305 306 306 305 306 307 306 309 310 317 311 309 310 307 309 318 318 321 326 331 337 340 341
312 313 313 314 314 314 314 314 314 314 314 315 314 314 314 314 314 313 313 314 314 313 313 313 314 314 314 314 315 316 315 314 310 314 318 326 321 324 324 327 323 325 317 316 315 314 312 310 309 308 306 304 306 307 304 306 304 305 302 300 303 306 303 305 306 306 306 307 306 305 307 305 308 309 310 311 309 309 309 313 316 316 320 324 329 333 338 339
312 312 313 313 314 313 314 314 314 314 314 314 314 314 314 314 314 314 314 314 313 313 313 313 313 314 314 314 314 316 314 308 308 320 323 325 326 322 329 331 326 317 316 317 315 312 310 308 307 306 305 302 305 305 304 306 307 305 303 304 305 305 303 306 306 306 306 306 305 306 304 305 309 309 309 311 309 309 311 315 317 321 323 326 329 332 335 336
312 312 313 313 313 313 314 314 314 314 314 314 314 314 315 315 315 315 315 314 314 313 313 313 313 313 313 314 315 316 312 296 310 318 333 330 326 324 328 328 329 318 316 315 311 309 307 307 306 302 302 303 303 301 304 305 307 299 304 304 306 306 303 306 306 305 305 305 305 305 307 308 306 307 309 312 312 316 319 319 322 322 324 332 333 333 335 334
312 312 312 312 313 313 314 314 314 314 314 314 315 315 315 315 315 315 314 313 313 313 313 313 313 313 313 313 315 314 312 308 317 323 330 329 323 326 329 329 328 317 317 311 310 308 307 305 305 303 302 302 303 303 305 304 306 303 300 304 304 305 304 306 305 306 305 305 305 307 308 305 306 304 310 311 315 318 323 326 327 330 333 334 331 334 334 334
311 312 312 312 313 313 313 313 314 313 313 314 314 314 315 315 315 314 314 314 313 313 313 313 313 313 313 314 313 313 312 307 319 322 328 326 323 323 325 317 315 316 314 310 309 307 306 304 303 305 303 301 303 303 305 303 304 301 300 303 304 305 305 306 306 305 306 306 308 307 305 305 307 307 311 312 317 319 320 325 328 327 328 329 331 329 333 335
311 312 312 312 312 313 313 313 313 313 313 313 313 314 314 315 315 314 314 314 312 312 312 312 312 312 313 313 310 308 307 314 319 321 321 317 314 316 315 313 316 313 311 312 311 309 306 305 305 305 301 301 304 302 304 301 299 303 302 304 304 304 305 306 306 306 306 307 307 305 305 307 308 309 309 314 317 319 321 324 329 325 325 326 327 330 333 335
311 311 312 312 312 312 312 313 313 313 313 313 313 313 313 314 314 314 314 313 312 312 312 312 312 312 312 313 315 308 308 317 320 318 315 314 313 314 314 315 314 312 310 311 310 308 305 306 306 307 306 305 305 302 304 302 301 305 303 303 303 304 305 306 305 306 306 306 307 304 304 306 309 307 305 316 318 320 322 323 322 323 324 327 323 330 333 333
311 311 311 312 311 312 312 313 313 313 313 313 313 313 313 313 314 314 313 313 312 312 312 312 313 311 313 315 309 305 312 315 318 319 316 315 314 313 315 315 313 312 312 310 308 309 309 309 309 309 306 303 304 303 304 304 306 305 305 304 304 304 305 306 306 305 306 305 307 306 305 307 308 308 306 313 318 320 321 319 320 321 322 323 327 330 332 332
311 311 311 311 312 312 312 312 313 313 313 313 313 313 313 313 313 313 313 313 313 313 312 312 312 314 315 314 311 307 315 314 317 318 317 316 314 315 314 315 314 313 312 307 309 310 311 311 309 307 302 308 300 304 303 306 305 304 304 299 302 303 302 305 303 304 305 304 307 307 305 303 305 304 310 314 318 318 319 319 318 319 321 322 326 325 331 331
311 311 311 311 311 312 312 312 312 312 313 313 313 313 313 313 313 313 313 313 313 312 312 312 312 317 315 312 308 313 316 318 316 316 315 315 316 316 315 315 315 315 314 310 309 311 311 311 310 306 309 305 304 300 305 307 304 304 303 301 300 301 300 304 305 306 304 306 307 306 296 300 303 307 309 312 316 317 318 318 319 322 319 322 323 328 330 332
311 311 311 311 311 312 312 312 312 312 312 312 312 312 312 312 313 313 314 313 314 313 313 313 316 315 314 310 310 315 317 320 316 314 313 314 312 310 312 313 314 314 314 311 311 312 311 312 310 309 310 306 304 310 305 305 305 299 302 302 298 298 297 304 304 305 302 306 306 306 297 300 304 307 309 311 314 315 315 316 318 320 322 319 327 328 330 331
311 311 311 311 311 311 312 312 312 312 312 312 312 312 312 312 312 313 313 314 313 313 312 311 315 315 313 308 314 318 325 320 313 313 315 311 310 308 309 311 311 311 312 311 311 312 312 311 309 306 304 308 308 303 301 302 302 301 298 295 299 297 299 302 305 304 301 305 307 304 297 300 304 306 309 310 311 313 314 315 316 320 316 324 322 325 329 327
311 311 311 311 311 311 311 311 312 312 311 312 311 311 311 312 312 312 312 313 313 311 313 314 318 315 310 305 312 325 318 311 311 314 314 314 311 308 311 310 311 311 311 311 313 313 312 310 306 307 306 306 303 300 300 299 299 301 298 299 297 298 299 301 303 305 305 304 306 303 298 302 302 307 309 310 310 310 313 314 316 318 321 324 326 321 326 327
311 311 311 311 311 311 311 311 311 311 311 311 310 311 312 312 312 312 312 312 314 312 316 316 317 318 308 314 318 310 307 315 316 315 313 314 313 312 310 310 308 309 310 311 311 311 310 306 308 306 305 303 303 302 297 296 296 297 299 298 300 297 299 298 303 305 305 304 301 304 300 302 303 306 308 309 310 309 309 313 314 316 319 324 321 320 320 325
311 311 311 311 311 311 311 311 311 311 311 310 309 311 313 312 312 312 310 312 317 318 316 319 315 313 307 312 304 309 314 313 312 314 313 315 314 312 310 308 309 308 309 307 309 306 308 304 307 302 304 302 303 300 295 293 297 297 297 297 298 299 300 299 298 302 304 303 301 303 301 302 304 306 306 308 309 309 309 310 314 314 316 320 317 317 319 322
311 311 311 311 311 310 310 311 311 310 310 310 309 310 311 310 314 316 317 315 313 308 304 305 308 300 298 305 312 313 312 314 315 314 311 312 312 313 312 312 309 307 304 303 304 304 306 305 306 301 299 299 299 300 299 299 300 298 300 299 299 297 297 298 302 304 304 302 300 301 300 301 304 305 307 309 309 309 309 311 313 314 314 317 316 316 317 318
311 311 311 311 311 310 310 310 310 310 309 311 315 317 318 317 313 312 316 315 311 311 309 308 308 308 308 309 309 315 317 316 309 311 313 313 311 309 309 309 307 306 305 302 303 305 308 299 298 297 299 302 305 304 303 303 302 301 300 300 299 299 299 301 303 304 306 302 301 302 302 302 303 305 306 308 309 309 308 309 311 313 313 313 314 316 322 321
311 311 311 311 310 311 310 310 310 310 309 312 318 317 310 308 304 304 307 310 315 314 310 309 308 308 309 311 313 311 307 308 312 309 312 315 312 308 305 306 304 301 302 304 305 309 306 298 299 302 303 305 305 305 303 303 303 300 299 298 297 298 297 301 301 304 306 302 299 302 302 302 304 306 307 308 308 307 308 308 310 311 311 312 314 315 317 320
311 311 311 311 311 310 310 310 310 309 308 314 317 316 313 312 313 315 310 304 309 310 310 310 312 309 313 313 314 314 312 306 306 309 313 312 309 304 305 303 301 299 304 304 304 302 298 296 302 305 306 304 306 304 303 302 301 301 298 298 297 298 300 303 303 304 304 303 299 302 300 301 303 305 307 307 307 308 309 309 310 310 310 311 312 314 319 322
311 311 311 311 311 310 310 309 310 309 314 315 316 318 312 315 318 319 316 309 306 311 309 308 306 307 309 313 313 314 307 305 303 307 309 310 307 305 305 301 301 301 303 304 298 299 296 299 305 305 305 303 302 303 303 303 302 300 299 296 295 299 297 295 302 303 304 302 299 301 300 301 304 306 307 309 308 308 310 310 311 312 311 311 311 313 317 321
310 310 311 311 310 310 309 310 309 311 314 319 317 314 315 318 318 317 313 306 305 308 308 309 308 308 309 307 313 311 307 307 306 304 312 309 305 307 304 303 301 300 299 301 300 298 298 301 305 305 303 303 302 302 302 300 298 301 301 298 297 298 299 298 299 303 306 306 305 301 299 299 301 301 303 307 309 308 308 309 310 312 313 313 314 314 317 318
310 310 310 310 311 311 310 309 312 318 322 318 314 317 318 319 320 317 312 309 305 305 313 311 312 311 312 318 315 308 308 309 308 310 311 309 307 305 302 306 303 299 299 301 300 298 298 305 306 302 301 302 302 301 301 301 298 299 302 301 300 301 300 300 302 300 299 298 303 298 291 292 299 300 301 305 306 306 308 307 308 311 312 313 313 315 316 319
310 310 310 310 310 310 309 309 317 319 317 313 316 318 319 319 320 320 312 304 298 304 306 300 311 305 317 309 311 309 311 304 310 312 312 310 313 307 306 302 303 298 301 299 299 300 300 304 303 301 301 301 300 300 303 303 298 296 298 303 302 300 301 301 300 299 294 291 299 304 292 288 298 299 301 303 304 305 307 306 306 307 308 308 309 311 313 316
310 310 310 311 311 309 310 313 317 315 309 312 318 321 318 318 326 322 308 298 292 301 298 307 306 308 312 310 310 311 295 301 311 312 310 312 307 311 302 301 302 303 303 305 300 296 302 301 300 302 301 300 299 298 302 302 298 295 303 302 302 300 299 300 300 299 296 301 302 301 298 292 292 297 301 304 304 304 304 305 306 306 308 308 309 309 311 311
309 310 310 310 310 309 316 317 316 310 309 316 319 318 318 322 324 321 306 287 286 304 300 304 306 313 310 311 311 305 304 308 301 306 311 312 310 306 303 301 301 301 302 301 292 301 302 300 300 299 299 298 298 300 303 304 298 298 303 304 301 301 301 301 300 298 298 297 292 297 300 292 292 297 302 303 301 302 303 305 305 307 308 309 309 309 310 312
309 309 309 310 310 310 314 314 315 312 317 318 318 317 319 327 319 310 298 285 301 301 312 302 313 309 307 309 306 307 306 307 300 306 310 311 311 307 300 303 302 301 302 302 297 300 302 301 301 301 299 297 300 302 303 304 299 303 304 304 303 303 302 301 299 297 297 294 289 294 297 290 291 297 298 301 300 300 302 304 307 307 308 308 309 310 312 312
308 309 309 310 311 313 313 318 315 316 318 319 318 319 322 318 313 298 289 281 304 294 303 304 303 301 305 301 302 305 303 304 305 305 307 305 307 308 305 307 303 301 299 301 300 301 303 305 305 301 298 300 302 303 303 302 303 306 304 301 301 301 300 301 300 298 295 287 290 296 297 294 288 294 297 298 300 302 302 303 306 308 308 309 311 311 310 310
308 308 308 308 313 318 320 313 315 317 318 320 322 320 318 314 302 292 283 294 302 300 304 302 300 305 301 299 298 303 303 304 303 304 301 305 304 305 304 301 304 300 300 300 299 300 301 301 299 301 303 302 302 300 304 303 303 303 300 298 298 297 299 297 296 297 287 286 293 296 297 297 287 292 297 301 304 304 305 304 305 307 307 308 310 309 310 311
307 307 307 310 316 320 311 314 319 320 319 324 322 317 311 294 300 288 287 304 291 297 298 299 302 301 300 302 300 299 299 301 303 301 300 300 300 299 299 296 299 292 292 294 294 299 298 298 301 302 304 301 299 297 299 301 302 301 299 298 291 288 289 286 291 285 286 285 293 296 297 293 292 296 298 301 302 303 305 304 306 306 306 308 307 309 310 310
306 307 308 311 315 318 316 321 325 325 326 323 319 312 302 291 284 294 295 297 293 300 298 302 300 300 300 299 298 300 303 298 302 301 302 302 299 300 302 300 300 298 289 295 294 294 295 300 301 301 301 302 300 294 295 295 299 298 296 295 289 286 284 281 286 287 288 292 296 295 297 290 295 297 302 302 304 305 305 306 307 307 308 308 308 309 310 312
306 307 314 315 316 318 322 328 325 326 325 321 313 304 299 288 287 299 297 297 296 301 301 299 299 300 300 296 298 300 296 301 300 300 300 298 298 297 298 300 300 299 298 296 292 293 287 289 296 298 295 302 300 298 299 298 297 298 300 297 293 291 287 281 285 282 284 287 292 296 291 287 289 294 302 305 305 305 305 305 308 309 309 310 309 310 311 312
305 310 320 331 320 320 323 323 326 330 328 314 305 299 289 288 293 292 295 297 299 300 298 302 298 298 297 298 300 300 299 296 300 299 297 296 295 297 297 297 299 299 298 291 296 292 291 292 297 301 300 301 298 301 301 299 298 299 300 300 294 291 296 287 289 288 289 288 288 292 289 294 296 303 304 305 304 304 305 305 306 307 308 309 309 311 312 313
310 323 324 323 319 326 325 323 328 332 320 309 300 292 290 295 291 296 295 301 301 297 298 299 299 296 295 296 298 298 302 297 298 298 297 297 298 296 298 299 299 299 297 291 296 290 292 290 299 300 301 300 300 301 300 301 289 297 296 292 295 300 296 290 290 295 290 288 285 292 290 296 301 300 303 303 302 303 303 304 305 306 308 310 309 310 312 313
316 325 317 319 319 320 320 324 325 324 316 305 297 291 297 298 299 299 301 299 300 301 299 292 294 293 292 293 295 296 298 299 297 296 293 298 295 297 297 299 300 299 300 298 295 298 291 291 298 297 296 300 302 302 302 301 301 297 292 296 301 303 300 294 286 287 287 283 285 290 287 290 291 287 301 300 300 301 302 302 304 307 308 307 309 311 312 313
313 314 316 316 317 317 319 325 324 318 310 303 293 295 300 296 301 300 302 300 299 300 296 294 295 297 294 294 293 296 298 294 296 296 293 296 292 300 298 297 300 299 300 302 295 297 298 289 294 298 299 300 302 301 299 301 303 297 295 302 293 288 288 294 289 281 282 281 284 287 291 291 292 292 297 298 298 300 301 302 303 304 305 307 309 310 312 314
314 311 305 313 316 317 320 326 320 311 305 297 293 292 298 298 302 300 301 301 300 299 295 296 294 296 296 295 296 297 297 292 296 295 292 295 291 299 298 299 298 300 300 301 297 299 301 289 291 298 297 299 299 298 290 295 300 301 301 297 300 296 292 288 289 291 290 283 283 284 289 286 295 296 298 298 301 301 301 301 302 304 306 308 309 310 311 313
313 306 303 315 316 319 327 322 313 306 301 293 296 296 301 298 300 302 302 300 298 297 296 296 297 296 297 296 297 294 297 296 295 295 295 296 293 299 298 300 298 299 300 301 298 301 293 300 287 295 299 298 292 297 293 294 293 295 295 294 296 296 299 296 296 291 288 284 284 284 283 290 297 301 299 300 302 303 302 301 303 305 307 308 309 310 311 312
312 302 303 317 315 321 320 313 304 299 298 300 300 298 300 298 301 301 301 301 300 303 299 298 298 296 296 296 295 298 295 296 296 294 295 296 295 291 299 299 300 298 300 299 297 299 292 292 288 293 293 293 295 299 299 298 298 297 297 295 295 293 291 287 286 296 293 288 284 283 282 292 301 302 302 301 304 304 303 303 304 305 306 308 309 310 311 311
304 297 302 315 319 319 311 300 301 303 300 297 297 299 298 303 300 300 300 301 300 299 302 299 299 298 298 297 297 296 295 295 296 294 295 293 296 296 298 301 299 300 297 293 297 302 299 297 294 289 292 293 296 299 301 301 300 298 298 295 297 297 295 291 284 288 293 292 293 291 286 287 300 305 303 303 305 304 304 304 304 305 307 307 308 309 310 311
302 298 310 314 316 314 306 299 301 298 299 300 302 302 302 300 299 300 299 300 298 300 299 298 297 297 298 297 297 296 297 295 295 293 295 295 295 299 299 300 299 298 298 296 297 301 298 290 288 289 293 295 296 298 300 300 299 296 297 298 297 294 295 293 291 294 289 290 288 289 284 290 300 304 303 304 305 304 304 304 304 305 306 306 307 308 308 309
303 303 306 311 316 311 302 292 293 295 298 300 301 300 301 300 299 298 297 299 298 298 297 298 298 299 297 300 299 295 298 290 295 295 294 296 295 300 300 299 299 297 296 297 295 302 291 294 291 286 286 289 292 295 295 298 297 295 293 296 297 297 297 297 296 297 288 290 291 287 282 288 299 304 303 302 303 302 303 304 306 304 306 306 307 307 308 309
302 305 304 307 310 308 297 300 297 295 297 298 299 297 298 298 299 300 300 298 300 299 299 298 299 300 297 299 297 298 298 295 294 297 296 296 296 299 299 299 298 297 300 301 302 302 293 292 290 284 282 280 280 281 284 287 291 295 297 295 296 295 295 293 288 290 286 290 291 287 286 293 298 301 300 301 301 301 303 304 305 306 306 306 307 308 308 308
302 292 302 302 304 304 302 305 303 300 296 298 295 298 298 296 298 299 299 298 299 300 299 299 299 299 297 296 295 295 294 298 294 294 295 294 296 297 299 299 298 299 301 300 301 299 293 296 294 290 287 286 289 291 295 294 293 290 292 295 295 295 296 295 293 288 286 289 288 291 292 292 295 298 298 299 301 300 301 302 303 304 305 307 308 307 308 308
303 296 296 294 302 301 301 301 299 299 294 300 292 298 296 296 297 298 300 296 299 298 298 298 297 296 296 295 295 295 296 294 296 295 294 294 296 298 298 298 298 300 301 298 299 297 294 289 293 293 293 292 293 293 294 294 291 292 292 292 294 294 295 294 289 287 293 289 284 292 294 291 292 297 298 298 300 301 301 302 303 304 305 306 306 307 306 307
296 299 302 303 298 293 295 296 298 299 299 299 296 299 296 296 296 294 297 298 299 300 296 297 296 296 295 296 296 291 294 294 295 291 295 295 295 297 295 297 296 299 298 298 301 297 293 288 293 294 292 293 294 294 294 294 293 293 293 293 293 294 294 290 290 293 293 287 285 292 294 292 294 296 297 298 299 300 301 302 303 305 306 306 306 305 304 305
302 302 300 304 297 299 297 298 298 297 297 298 297 297 296 295 295 296 296 297 296 297 297 289 294 296 296 296 295 293 294 289 288 296 295 295 295 295 294 295 297 298 297 297 298 299 295 289 293 293 291 292 293 293 294 293 292 292 292 293 293 293 293 294 293 294 294 292 293 293 293 292 296 297 298 300 301 301 301 303 304 303 304 304 304 303 303 303
296 296 296 302 302 298 299 298 298 296 296 296 291 296 295 295 294 295 295 295 292 295 298 294 294 296 295 295 295 293 296 297 296 290 296 296 295 296 294 295 294 297 297 296 296 299 293 288 293 293 289 289 292 292 293 292 292 291 292 292 293 293 293 294 294 294 294 293 294 293 291 290 297 300 300 302 302 302 301 301 301 302 303 304 304 303 302 303
301 304 301 298 295 295 297 298 296 296 294 295 293 295 295 294 294 295 294 296 296 294 296 295 296 296 295 295 296 295 296 297 298 297 298 297 292 296 294 295 297 294 295 295 296 296 295 289 294 291 286 286 291 291 291 292 291 290 290 291 292 291 288 291 289 293 292 289 292 291 288 288 296 300 300 300 300 300 299 300 301 301 302 304 304 303 303 304
303 306 305 301 293 294 295 297 297 294 289 294 294 294 293 294 294 295 290 295 295 296 296 296 297 296 295 295 293 294 296 297 297 297 298 298 299 298 298 297 296 295 294 294 296 292 294 290 288 288 284 284 290 291 290 290 288 284 285 289 292 292 293 293 294 295 295 295 289 286 288 295 298 299 298 298 299 299 299 300 300 300 302 303 303 303 303 304
Wind_Speed
10 10 10 10 10 10 10 9 9 9 9 10 10 10 10 10 10 10 9 10 10 10 9 9 10 10 11 11 11 13 12 12 14 11 12 12 8 7 5 6 9 7 8 9 10 10 11 11 11 9 8 8 8 10 7 9 7 6 8 8 10 9 11 6 10 7 9 6 6 3 6 5 7 3 2 4 10 12 8 10 8 4 4 9 16 18 18 17
11 11 10 9 9 10 10 10 9 10 10 10 10 10 10 10 10 10 10 10 11 10 10 9 11 11 11 11 12 12 12 13 13 13 16 8 10 7 4 4 9 11 10 12 12 11 11 11 11 9 10 9 7 9 6 7 8 9 8 9 10 9 8 4 5 7 7 6 9 5 3 4 7 4 1 8 10 13 13 11 9 7 10 9 13 17 18 16
11 10 10 10 10 10 10 10 10 10 10 10 10 11 10 10 10 10 11 10 10 11 11 11 10 11 12 12 12 9 13 14 12 15 5 9 11 8 6 8 11 11 14 12 10 11 11 8 10 10 9 10 8 8 8 7 9 10 10 10 10 10 7 1 3 7 6 8 7 5 4 6 4 6 5 9 9 11 15 11 12 11 14 10 11 14 14 15
11 11 11 11 11 11 11 11 11 11 11 11 10 11 11 11 10 10 10 10 10 11 11 12 11 11 12 13 9 11 11 12 10 5 10 7 8 9 7 8 11 12 15 13 7 10 8 6 8 10 9 11 8 11 8 7 7 8 11 10 9 1 7 2 3 4 6 5 6 6 5 9 3 5 5 6 10 11 10 13 12 14 13 15 11 14 13 13
12 11 11 11 11 11 11 11 11 11 11 11 11 11 11 10 11 11 11 10 10 10 11 12 12 12 12 13 11 10 9 9 8 8 8 9 9 10 7 8 10 14 15 10 6 7 6 10 8 10 11 9 9 9 10 8 9 7 9 11 14 6 7 6 6 3 3 4 6 6 8 6 7 9 8 8 10 6 8 11 13 11 17 18 16 15 16 13
12 12 11 11 11 11 11 12 11 11 11 11 11 10 11 11 10 11 11 10 11 10 10 11 12 12 12 11 11 11 8 2 4 5 2 9 8 8 7 9 11 15 12 10 9 7 9 10 10 9 9 11 9 9 10 12 9 9 9 11 12 10 9 4 3 3 3 7 9 7 4 5 7 7 5 7 10 3 2 6 8 13 15 18 17 14 15 18
13 12 12 12 12 12 12 12 12 11 10 11 11 11 10 10 10 10 10 10 10 10 10 11 11 12 12 12 12 10 11 3 4 7 9 9 9 8 8 9 10 12 13 10 9 8 9 9 11 9 9 10 10 10 9 10 5 10 10 8 10 8 8 8 8 6 6 9 8 7 6 7 4 11 3 8 3 3 3 4 7 15 10 17 12 10 13 15
13 13 13 12 12 12 12 11 12 12 11 11 11 11 10 10 10 10 10 10 10 11 11 11 11 12 11 11 8 9 12 2 8 10 11 10 10 9 8 11 13 13 12 11 8 10 8 10 11 8 9 9 5 12 5 7 10 11 13 11 6 7 8 7 8 9 7 8 6 7 8 8 6 5 1 7 5 6 5 6 6 16 13 11 11 9 14 14
13 13 13 12 12 12 12 12 11 12 11 10 10 10 11 10 10 10 10 10 10 11 10 10 11 11 10 9 8 10 3 6 7 10 14 13 13 13 13 11 13 11 9 8 8 7 7 8 10 8 5 10 2 9 7 6 11 15 12 9 6 7 8 9 9 8 8 7 7 7 9 7 5 1 8 5 5 2 5 8 9 12 9 7 10 15 12 13
14 13 13 13 13 13 12 12 12 11 11 11 10 10 10 10 10 10 9 10 10 9 10 11 10 11 11 8 8 8 7 3 7 10 12 12 13 13 14 9 11 10 9 7 6 7 11 3 8 3 7 10 1 10 7 10 3 5 7 9 9 10 9 8 8 8 8 9 6 9 8 7 4 8 6 3 8 7 10 12 8 9 12 16 13 13 16 15
14 13 13 13 13 12 12 12 12 11 12 11 10 10 10 10 10 10 10 9 10 10 10 10 10 10 9 10 10 3 1 2 4 7 11 11 12 11 11 8 9 9 9 6 7 8 2 5 3 2 6 5 7 9 7 8 7 5 7 8 10 11 9 10 7 8 7 10 9 8 7 1 7 9 3 9 8 8 9 14 12 11 11 8 13 14 13 14
14 13 13 13 13 12 12 12 12 12 11 11 11 10 10 11 10 10 10 9 9 10 9 9 10 7 10 10 9 5 2 6 4 6 8 9 10 9 4 6 8 7 7 7 7 5 3 4 5 8 5 4 8 3 11 9 5 9 7 10 12 13 12 11 11 11 10 10 10 10 9 10 10 10 9 7 10 8 9 11 15 14 13 14 13 13 13 13
14 13 14 13 13 12 12 12 12 12 12 11 11 11 10 10 11 10 10 11 9 9 9 8 9 7 8 8 5 7 3 4 4 5 7 8 7 4 4 3 6 6 7 5 7 5 3 4 6 8 6 8 6 4 8 3 8 7 9 10 8 9 11 12 7 7 11 6 9 8 10 10 13 8 7 7 8 9 8 10 14 15 15 10 12 11 13 14
14 13 13 13 13 12 12 12 12 12 12 11 11 11 10 10 10 10 10 10 10 10 9 9 8 8 6 4 7 6 1 2 5 6 8 8 8 7 6 7 4 6 3 6 2 1 4 4 7 9 7 9 4 4 12 8 8 9 9 10 9 8 9 13 9 9 13 10 9 9 11 8 10 11 8 6 7 10 9 9 9 10 12 17 13 10 13 14
13 13 13 12 12 12 12 12 11 11 12 12 11 11 11 10 10 10 9 9 11 10 9 9 8 6 7 4 5 7 6 6 7 7 7 9 8 8 8 7 8 6 6 3 2 4 5 6 8 9 8 7 7 7 8 9 8 9 9 9 8 11 9 11 8 10 13 11 11 11 11 8 10 11 9 7 7 8 10 9 9 9 11 11 12 9 10 10
13 13 13 12 12 12 12 11 11 11 11 12 11 11 12 12 11 9 9 9 7 4 8 8 8 8 10 4 6 8 6 9 9 9 7 8 9 10 9 8 6 5 5 5 3 2 5 7 9 7 6 7 10 8 9 8 8 8 10 5 8 7 9 6 8 10 12 9 11 14 9 9 11 11 9 7 8 9 8 10 11 10 11 10 8 7 6 8
13 13 12 12 12 12 11 11 11 10 10 10 10 11 10 10 10 10 8 8 8 7 6 5 4 4 5 6 8 9 10 6 8 7 9 7 6 7 10 8 7 7 6 5 5 5 6 8 6 6 7 9 7 8 9 7 7 7 7 7 5 10 11 5 10 10 7 8 10 13 13 6 12 7 8 7 8 9 10 8 10 8 9 9 7 6 4 6
14 13 12 12 11 11 10 10 10 10 9 9 8 8 6 5 6 5 3 7 6 6 7 7 6 5 7 7 11 10 8 8 9 7 8 6 7 7 8 9 6 7 6 7 8 9 7 8 7 6 6 7 6 8 7 6 5 7 6 4 4 7 10 7 8 12 10 11 15 14 11 12 14 11 8 7 7 8 9 8 7 9 9 11 7 11 13 12
14 13 13 12 10 10 10 10 10 9 8 5 5 8 8 6 6 8 5 6 6 5 6 8 6 6 5 14 6 6 6 7 5 7 10 9 8 7 7 5 6 8 9 8 9 11 7 7 6 8 8 8 9 9 6 10 13 4 7 7 8 7 8 8 11 9 4 7 12 6 6 12 15 7 8 8 7 8 8 8 6 8 9 11 15 15 12 11
14 13 12 11 10 9 9 9 8 8 6 8 6 6 4 4 5 4 9 9 11 11 10 5 12 1 4 9 8 7 6 7 9 11 10 8 8 9 10 7 9 9 9 7 10 7 2 7 7 10 2 3 6 7 6 9 11 9 8 7 7 6 9 11 10 6 3 7 8 12 13 10 11 5 5 7 7 8 9 10 9 8 9 10 10 11 18 17
14 13 12 10 9 8 8 7 6 6 6 7 8 7 5 7 7 3 3 9 12 11 9 5 9 8 5 6 6 10 9 10 10 10 10 9 11 9 9 9 9 9 8 9 1 6 5 8 10 4 6 4 7 6 6 7 7 8 9 9 9 6 9 4 7 6 4 8 8 13 7 8 10 8 7 5 8 11 11 11 11 10 10 9 10 10 10 14
14 13 11 9 8 7 7 7 5 5 3 6 7 8 4 7 7 5 6 6 11 11 9 8 4 9 4 6 2 3 8 8 11 11 8 11 11 12 11 10 10 10 10 7 5 5 8 10 5 4 5 3 4 4 4 6 7 7 9 9 9 7 6 11 7 5 3 6 9 8 10 11 14 12 8 8 9 10 10 10 11 12 12 10 9 9 8 16
14 12 10 8 7 6 5 5 4 2 5 5 7 12 3 5 3 4 5 7 10 6 8 9 9 9 8 5 7 8 10 10 10 12 11 11 10 14 8 9 9 9 7 7 8 8 9 12 9 6 4 1 5 7 6 7 8 8 8 10 8 8 11 8 6 5 5 6 8 10 9 4 10 9 9 8 9 9 9 10 11 11 10 10 9 9 8 12
14 12 9 8 6 4 4 1 3 6 7 11 10 8 5 4 5 6 8 6 5 10 11 10 10 9 10 9 10 11 12 9 7 14 12 11 11 9 10 10 10 7 8 9 11 11 3 11 9 5 1 4 7 7 8 8 8 9 10 9 9 10 6 9 3 3 1 7 8 11 9 8 11 13 12 12 11 8 8 8 9 9 10 9 8 8 8 10
15 11 9 6 5 4 2 4 5 7 8 11 11 5 0 3 4 6 7 7 8 6 4 5 5 8 5 4 8 11 10 4 6 11 12 12 10 4 10 2 8 7 10 8 8 9 8 7 8 2 4 6 8 7 9 8 9 8 11 10 9 11 5 7 5 7 8 8 10 10 9 10 12 17 15 8 8 9 9 11 12 11 11 10 10 9 7 7
15 12 8 6 3 2 5 4 7 6 8 8 3 4 3 5 4 5 6 5 5 7 9 11 8 8 2 11 7 9 4 10 7 6 8 11 6 10 3 8 7 10 7 4 8 7 7 3 2 2 6 8 8 9 8 9 9 9 5 10 9 10 7 8 9 6 8 9 3 5 9 7 7 5 7 7 10 11 10 11 12 12 12 11 10 10 9 9
15 13 8 6 5 6 4 0 7 4 8 5 4 2 4 5 4 4 5 4 5 8 11 9 12 4 5 9 11 7 9 7 7 6 9 6 10 7 11 6 6 5 4 3 2 9 7 6 4 5 6 8 9 9 9 8 8 7 6 7 6 9 9 8 10 10 8 9 10 10 8 9 9 6 5 5 8 10 10 9 10 10 10 10 11 10 9 8
16 12 9 6 7 11 5 8 9 7 6 5 5 3 5 3 2 3 5 4 3 7 6 10 2 4 7 9 10 10 3 8 10 12 10 9 8 8 9 10 9 10 8 7 9 7 6 5 6 8 9 9 9 8 2 6 8 0 3 7 8 9 7 8 9 9 9 7 9 8 10 11 10 7 7 6 9 10 10 10 9 9 9 8 5 6 6 7
14 13 10 8 8 12 9 6 8 11 6 4 4 5 3 2 6 5 3 5 5 5 5 6 3 9 7 8 11 11 6 10 7 11 8 7 10 7 10 6 9 7 5 8 7 6 5 6 7 9 8 9 11 6 6 5 8 2 6 6 8 7 7 9 9 9 7 7 9 10 7 9 9 6 6 9 9 10 9 9 7 7 7 7 6 3 1 2
14 13 9 2 4 6 6 7 9 12 7 4 5 4 3 5 6 5 3 6 6 6 9 6 10 11 12 12 11 13 11 8 1 8 8 9 12 9 8 6 5 6 7 9 11 2 4 2 4 6 8 10 10 5 4 3 8 5 5 10 9 9 8 7 8 9 8 10 11 12 10 9 8 7 6 6 6 6 8 8 6 5 4 4 2 5 4 3
15 12 9 9 7 3 3 7 9 9 4 3 5 6 5 6 6 4 7 1 7 6 8 8 9 7 14 14 10 11 13 9 10 9 10 8 10 10 6 8 6 8 7 7 9 10 8 8 8 7 9 9 7 8 5 6 7 8 8 8 7 9 7 8 8 7 7 8 10 10 9 8 10 7 6 5 4 1 3 8 6 5 4 3 2 2 1 2
16 13 7 11 7 7 7 3 7 4 3 5 6 6 6 6 8 8 4 6 10 10 10 10 7 10 13 13 9 11 9 8 9 11 11 10 9 9 10 7 6 8 9 7 7 4 8 9 9 9 5 8 7 10 9 8 9 9 10 10 7 5 4 7 7 8 8 7 4 3 7 7 10 9 2 6 6 5 4 1 4 4 1 1 0 2 2 4
17 14 7 12 9 6 9 7 5 4 5 6 7 7 7 5 8 8 8 5 1 3 6 4 10 11 9 11 9 11 10 9 9 11 10 10 9 9 7 8 2 6 5 2 7 6 8 11 11 6 6 8 9 9 7 8 8 10 10 6 7 7 7 9 9 5 8 10 3 5 3 8 5 3 5 7 5 5 5 3 3 3 3 1 2 2 4 4
18 9 5 8 10 9 6 6 5 5 5 6 7 7 8 7 7 3 5 6 2 5 1 9 6 9 9 9 7 7 8 6 9 8 8 6 7 8 6 10 7 9 7 5 7 5 6 7 9 7 6 7 9 10 8 4 7 10 9 9 7 8 6 8 7 7 7 5 3 2 2 4 11 3 3 6 5 5 6 6 6 4 4 2 3 4 5 5
23 9 9 4 7 10 10 8 5 5 5 6 7 8 7 7 9 8 7 8 4 6 8 6 10 10 10 10 7 9 6 6 11 6 10 10 8 8 7 4 5 7 4 6 6 4 9 9 5 5 5 5 7 7 8 10 8 6 7 8 9 7 5 9 6 7 7 5 4 7 4 2 2 8 4 4 7 7 7 7 7 6 3 4 4 4 5 6
13 5 8 7 7 6 7 6 5 5 6 7 7 8 9 8 7 6 5 2 1 6 8 8 11 10 8 8 7 10 12 7 10 9 7 8 5 5 5 2 2 1 5 6 3 4 4 6 11 7 6 6 7 2 7 5 8 2 6 9 7 6 8 5 6 8 3 6 10 6 5 9 6 9 9 8 7 8 8 8 8 7 7 6 5 5 6 7
6 4 7 8 9 5 4 5 4 6 7 8 8 8 9 10 7 7 4 7 3 7 7 8 8 9 7 7 7 11 9 10 6 8 8 5 4 6 5 4 1 4 5 6 6 5 9 5 4 4 8 7 3 5 8 6 9 7 7 4 9 8 6 5 7 3 5 8 6 6 8 9 8 4 10 10 10 9 8 9 8 6 7 7 6 6 7 8
8 7 8 7 4 2 4 5 5 6 8 9 8 11 8 9 3 9 5 5 6 9 9 8 4 7 7 8 9 10 8 8 6 7 9 8 2 3 3 3 5 3 2 2 7 1 2 8 9 13 11 8 4 6 11 12 9 11 10 4 5 2 6 6 4 8 8 8 7 7 11 10 7 6 8 11 10 9 9 8 9 8 7 7 7 8 8 8
9 7 9 8 4 3 5 5 5 8 8 10 8 9 9 13 4 3 0 7 6 7 10 9 8 8 10 8 7 7 6 8 7 8 7 6 7 4 5 1 4 4 4 4 7 5 3 7 8 3 4 2 4 6 9 9 12 14 11 13 9 9 8 7 4 7 7 8 7 8 11 7 5 6 8 6 7 10 9 8 8 8 7 6 7 7 8 8
8 6 7 8 4 4 6 5 6 8 9 10 9 10 6 7 5 4 4 7 7 8 7 11 7 7 8 9 10 8 8 11 6 7 8 4 4 6 4 5 3 4 0 2 8 2 5 3 7 6 5 3 8 7 10 10 8 8 9 9 8 8 6 8 7 9 8 7 8 7 8 6 2 6 3 6 10 10 9 9 8 7 7 8 8 8 8 9
6 7 1 3 4 4 5 7 8 10 10 9 13 11 4 7 6 6 3 4 8 4 9 6 6 8 9 9 9 7 6 6 8 8 6 6 6 4 3 0 4 4 3 5 6 6 4 4 7 8 10 9 6 2 7 7 5 6 5 6 7 6 8 10 9 7 11 9 8 8 9 7 4 2 1 6 3 8 9 9 9 9 9 9 9 9 9 9
6 9 4 3 3 5 7 9 8 8 9 10 9 8 6 5 7 3 5 6 9 7 6 9 8 8 6 6 6 7 7 8 8 7 6 8 6 6 7 1 3 3 5 5 3 9 5 5 6 7 9 10 12 3 4 7 8 12 10 9 9 7 7 8 11 6 8 10 11 11 9 3 2 3 4 6 4 7 8 8 8 9 9 10 10 10 10 10
7 5 9 3 3 7 7 9 9 8 8 9 4 6 2 5 7 3 5 7 8 8 6 4 7 8 9 8 6 8 6 7 8 7 6 5 2 10 8 3 2 5 4 7 9 5 3 3 6 11 12 14 17 17 7 4 8 11 12 12 12 12 10 11 11 9 8 8 8 7 8 1 4 4 2 2 3 4 4 7 9 9 8 10 11 11 10 10
5 6 4 7 4 5 9 7 8 8 9 11 5 9 2 6 5 6 9 5 6 5 7 7 4 5 8 2 7 7 5 6 5 8 5 5 1 8 7 2 3 5 7 4 4 6 3 6 10 8 8 8 10 11 12 7 7 9 10 11 12 13 12 11 11 9 10 12 13 10 11 5 5 2 3 4 6 7 8 9 10 10 8 9 10 9 9 9
7 4 6 2 5 7 9 7 9 7 7 8 7 11 8 7 5 7 6 3 1 6 3 5 6 3 6 5 7 8 8 6 6 5 6 5 4 5 7 3 3 8 4 9 7 3 4 6 6 7 7 8 7 7 7 5 5 5 8 13 15 8 9 10 9 9 11 12 15 11 11 1 5 2 3 4 6 7 8 9 9 8 9 9 8 8 8 8
4 4 4 6 4 6 8 5 8 7 6 5 5 8 8 8 6 6 6 7 4 5 5 7 2 6 10 6 7 9 10 8 8 6 6 8 6 4 5 3 4 1 9 6 5 4 6 6 9 9 10 10 10 11 7 5 9 9 11 12 6 9 10 11 10 10 11 10 12 14 13 10 7 6 5 5 5 7 7 8 8 8 8 7 7 7 7 7
5 3 3 2 2 6 3 1 5 6 7 3 5 5 9 10 5 4 4 7 5 7 4 6 8 5 6 8 7 9 9 12 9 10 10 7 7 5 5 2 4 5 4 2 4 4 6 7 10 13 15 15 17 18 17 15 15 15 13 13 16 16 12 12 9 11 12 12 15 12 14 13 12 10 5 5 4 6 5 5 7 7 8 7 7 6 7 7
2 3 3 4 4 1 3 2 6 4 2 3 5 2 7 8 7 6 4 7 2 4 6 3 9 10 9 8 7 6 8 10 9 5 8 8 9 9 5 9 9 10 6 7 5 6 8 8 10 12 14 15 15 17 17 16 16 16 18 16 17 17 17 16 13 17 14 11 15 14 15 14 11 9 9 9 9 9 9 8 10 7 7 8 8 8 8 8
6 3 3 5 4 2 5 6 6 7 2 4 1 2 7 7 7 2 4 1 5 2 5 3 5 7 6 6 5 7 8 8 7 10 8 7 9 7 6 6 8 7 8 8 5 1 4 7 12 12 15 15 16 17 16 17 16 17 18 19 18 19 19 19 20 19 20 19 19 18 18 17 16 15 15 13 8 8 8 8 7 9 10 11 10 9 9 8
7 7 4 7 5 3 4 5 4 6 4 3 3 3 4 4 6 5 2 4 3 2 3 8 7 6 5 6 6 5 6 5 6 4 3 5 5 6 8 9 5 6 5 8 8 5 3 4 1 8 11 13 15 15 15 16 17 19 19 20 20 18 19 19 19 19 19 20 20 20 16 16 14 12 12 12 12 9 9 10 12 11 10 11 10 10 10 9
6 4 4 6 4 5 5 2 4 4 5 2 5 3 3 3 2 3 2 5 3 2 4 4 7 3 5 6 1 3 7 6 4 3 2 4 6 4 6 3 7 7 8 8 6 5 4 7 11 11 11 12 13 15 17 17 19 20 20 20 19 19 15 17 14 14 14 16 17 16 15 12 10 11 13 14 15 16 13 13 13 11 13 13 13 12 10 9
8 4 5 6 3 2 7 1 4 5 2 6 6 4 5 1 4 1 2 4 2 3 4 6 3 7 5 6 2 5 6 6 5 5 5 5 5 6 6 6 4 5 6 9 7 8 7 8 8 7 11 12 13 15 16 15 13 13 12 13 17 19 19 19 19 18 17 16 14 15 13 11 12 13 12 13 14 14 13 12 13 13 11 12 13 11 11 9
Wind_Direction
326 325 325 322 324 316 317 315 311 307 306 303 302 300 297 297 297 296 295 293 294 296 299 298 300 301 303 305 308 308 307 291 293 272 236 246 90 117 85 128 156 168 211 207 217 197 205 212 215 210 223 221 214 233 216 207 239 222 227 239 245 250 246 244 248 237 43 280 103 31 40 328 278 359 284 222 229 239 226 212 184 181 41 69 98 128 132 144
326 324 322 320 316 316 313 313 314 311 307 306 304 301 298 297 298 297 297 297 297 300 300 300 297 302 303 305 310 312 305 289 280 269 254 104 122 126 128 147 175 183 206 212 210 200 211 205 213 194 226 224 188 232 169 208 220 227 229 236 250 235 247 314 359 337 321 297 356 3 305 356 298 337 260 258 220 216 217 207 150 146 89 90 115 122 134 146
323 321 319 318 316 315 313 313 312 311 305 303 302 299 297 294 295 297 294 295 295 297 298 296 300 299 302 305 305 310 291 291 267 255 226 109 125 151 149 175 185 195 204 206 205 211 222 203 207 206 217 236 177 220 174 213 197 226 254 239 236 262 298 29 338 285 294 315 283 295 319 299 357 279 25 261 256 203 218 199 173 200 140 134 131 129 138 152
322 323 320 317 317 312 312 311 312 309 309 306 303 301 301 296 290 288 287 288 293 292 296 296 297 301 302 299 313 306 287 282 266 133 101 118 143 155 181 178 195 209 219 250 225 229 228 268 216 214 216 238 182 236 187 194 208 195 235 246 251 167 290 236 259 275 264 268 281 280 312 274 102 313 287 269 264 232 210 211 195 181 162 140 155 150 150 175
321 316 314 311 312 313 309 311 308 308 308 307 304 299 297 296 292 290 291 292 290 288 290 292 293 297 299 304 300 286 291 267 97 93 101 153 163 172 165 194 203 207 219 235 217 237 224 219 212 217 238 218 231 200 239 205 215 262 238 250 266 290 240 271 262 263 303 306 286 271 260 283 354 255 230 250 251 235 234 225 198 170 159 146 161 165 162 186
318 315 313 312 310 313 313 309 308 308 308 306 302 301 295 295 296 292 290 288 286 285 286 291 293 294 301 308 297 272 253 2 79 82 116 159 157 160 170 193 207 221 214 224 213 193 217 212 214 210 217 243 211 222 206 237 183 243 228 246 260 272 278 318 330 278 245 253 247 255 281 334 271 291 259 256 252 23 288 201 184 143 149 141 154 175 169 167
318 318 315 314 311 310 309 303 304 304 306 302 303 301 301 298 300 298 290 286 282 284 289 291 294 298 304 303 268 258 239 343 87 94 121 152 151 155 166 193 204 225 239 209 214 199 212 212 216 206 222 232 235 226 226 200 182 249 262 230 223 248 262 255 252 256 252 243 242 252 300 270 290 261 135 233 192 139 98 84 119 108 117 140 155 159 176 163
318 314 311 309 307 304 304 303 303 305 303 301 299 303 302 302 300 296 293 291 288 286 287 290 293 296 316 298 265 227 228 24 78 94 111 124 159 164 179 187 196 212 216 211 199 217 199 221 208 219 244 227 201 220 142 228 226 232 241 261 263 254 258 264 256 247 247 254 257 250 254 260 241 294 183 225 172 176 200 130 138 126 140 144 147 167 193 157
317 313 311 309 306 304 303 304 302 300 298 296 297 297 300 303 301 301 298 290 286 285 286 290 289 296 296 280 282 281 106 50 72 118 136 153 159 172 186 184 203 211 210 213 219 227 220 205 238 235 226 227 295 239 181 235 224 221 248 252 262 254 245 236 236 235 242 242 226 239 240 233 237 40 236 169 118 114 159 153 120 131 129 157 158 196 172 155
317 313 310 311 309 306 303 302 299 296 297 297 297 298 298 297 298 298 296 290 284 287 287 287 290 293 283 262 265 259 85 88 113 130 153 158 162 176 203 192 191 205 213 218 200 245 223 201 252 181 275 285 75 227 223 218 336 5 233 246 258 253 245 234 249 242 230 232 200 234 225 196 190 221 153 130 120 157 180 122 115 131 160 174 179 196 165 158
317 311 310 309 305 301 300 298 297 296 297 298 295 294 293 295 292 293 288 291 289 283 282 283 291 291 276 262 273 293 106 139 101 146 158 170 171 184 201 202 195 207 227 175 223 229 208 299 184 251 265 266 187 231 230 226 294 228 260 268 253 255 250 249 231 243 221 216 210 231 231 159 187 207 210 145 143 159 149 148 145 159 164 183 188 176 164 165
314 310 309 308 304 300 299 299 298 297 294 295 296 294 291 291 296 289 285 285 284 279 278 282 279 274 275 278 263 48 168 87 147 139 173 174 186 201 172 196 206 217 218 172 219 192 233 312 223 246 291 88 229 227 216 246 243 247 242 252 233 223 233 206 229 214 207 211 191 211 228 206 174 213 101 129 155 183 153 158 162 175 159 190 173 188 169 169
313 310 310 306 302 300 299 301 297 295 295 294 295 293 290 288 286 291 286 279 267 262 267 278 279 259 287 268 102 103 100 132 126 156 160 190 191 216 215 220 226 258 258 216 182 196 188 254 250 257 253 249 279 247 37 204 237 243 238 253 250 229 225 182 219 204 200 147 189 192 232 195 199 138 134 133 170 175 172 170 165 167 157 194 193 187 169 165
313 308 307 306 301 300 302 299 297 295 296 296 295 296 290 285 281 280 284 272 282 277 271 261 269 265 257 298 105 94 224 129 147 178 170 183 197 174 205 192 212 223 201 294 49 311 267 253 269 275 301 251 285 88 228 216 240 236 213 220 256 225 208 146 203 168 217 118 200 204 244 204 177 116 130 162 157 189 181 179 171 170 166 171 184 179 171 171
310 310 305 304 303 301 299 298 297 296 296 296 293 291 289 282 274 267 269 278 247 258 262 271 243 260 229 139 107 102 20 264 185 178 174 177 174 152 175 170 184 194 200 267 225 216 251 258 254 241 220 211 256 243 223 224 195 233 222 209 224 248 122 157 187 174 223 140 204 209 237 243 156 135 139 158 195 196 184 196 167 171 183 176 172 177 183 160
312 309 306 303 304 302 297 297 297 298 296 296 293 295 290 279 266 255 255 263 346 267 250 247 220 243 297 231 116 133 199 193 185 170 173 203 169 160 150 173 164 179 211 204 266 240 232 255 251 278 273 164 246 234 231 211 200 212 240 236 209 225 128 162 206 169 244 155 196 216 230 215 155 136 152 170 185 204 208 187 175 187 174 170 147 175 187 162
316 311 307 303 303 301 298 297 296 297 296 294 303 285 283 277 251 242 243 248 241 226 237 273 308 195 278 63 146 188 187 184 114 182 165 225 249 133 172 164 184 182 201 221 224 244 218 231 221 231 246 260 238 251 253 224 202 208 223 234 250 222 179 196 141 202 161 214 183 206 251 261 106 149 161 172 200 196 215 183 197 189 179 137 153 161 197 192
317 312 307 309 301 300 298 295 294 292 296 296 292 319 306 180 248 203 213 230 231 226 232 253 268 271 222 166 198 192 159 139 193 160 183 168 239 164 178 192 165 198 196 203 195 234 189 231 214 254 203 226 226 236 246 232 222 230 181 246 217 264 306 134 193 143 213 196 248 182 234 249 161 155 143 184 203 210 209 205 200 198 186 153 190 190 182 192
319 315 312 305 304 299 300 295 289 291 290 296 292 284 252 201 225 228 243 173 203 177 205 182 193 211 24 174 89 120 178 124 157 177 172 183 200 198 209 249 199 189 202 224 159 227 170 250 221 248 233 202 209 234 303 7 325 349 219 211 223 214 196 269 96 145 268 182 233 235 224 232 242 220 215 191 209 225 208 210 206 208 215 192 197 196 188 178
323 316 312 309 305 300 294 291 288 282 281 256 209 213 205 209 182 194 209 221 237 258 331 152 203 287 179 151 166 87 97 163 185 206 171 190 190 197 215 210 200 224 227 228 144 231 214 240 224 228 260 46 42 352 359 328 333 326 319 310 294 245 209 192 108 81 205 285 250 229 209 251 248 231 231 193 195 226 221 203 209 215 216 214 208 216 161 169
321 321 314 309 301 298 288 287 282 270 263 264 269 260 291 10 329 85 326 235 230 239 243 233 216 256 355 105 122 175 169 174 214 181 200 168 214 200 195 210 209 216 218 243 198 98 245 246 242 240 45 38 16 1 328 306 292 286 272 258 251 224 269 254 180 124 152 251 242 241 247 241 264 230 238 210 222 226 218 214 203 216 220 223 224 216 170 142
327 319 318 309 306 297 291 277 272 267 266 262 257 252 325 43 0 349 306 283 188 218 227 245 242 238 196 234 136 268 223 169 200 176 175 187 195 225 153 222 208 232 193 195 200 206 222 239 247 61 54 24 274 284 295 273 267 258 259 250 248 239 230 67 84 169 143 241 263 256 208 233 242 235 210 207 221 237 223 216 213 214 214 216 214 216 195 147
329 326 315 315 306 293 286 273 251 193 236 221 233 244 360 358 337 343 286 279 281 202 216 214 203 217 194 182 190 196 222 204 173 168 167 206 196 231 181 213 215 240 161 202 234 212 233 231 167 115 72 352 219 240 241 252 259 253 230 244 245 250 234 204 168 218 213 247 263 289 294 240 271 252 217 197 223 229 223 215 215 215 216 219 215 214 216 177
334 326 323 309 306 297 269 269 218 199 229 233 260 307 12 320 322 324 296 266 270 166 216 190 214 203 189 195 163 211 224 173 184 169 159 202 216 184 251 240 234 230 234 205 232 260 262 59 79 122 142 225 238 210 229 241 239 222 254 264 252 241 265 293 101 270 105 245 270 271 261 250 235 242 216 207 215 219 207 211 215 205 212 214 220 221 211 214
335 332 320 312 282 283 221 209 220 223 212 223 253 262 296 311 317 324 297 264 239 178 147 161 233 230 115 68 151 225 227 321 252 133 161 203 199 188 235 202 273 220 250 187 226 241 248 95 100 173 200 223 248 236 222 258 256 235 211 258 278 294 294 255 172 187 226 229 201 229 249 249 234 228 231 190 186 217 206 208 205 200 202 201 210 217 226 232
335 327 322 297 264 201 124 228 218 219 216 243 289 111 313 324 354 324 283 263 213 144 167 195 182 158 134 184 172 234 226 217 161 147 168 207 275 278 74 229 219 270 181 173 235 272 61 157 195 207 216 232 241 257 234 210 258 261 234 203 241 270 243 243 252 237 251 259 148 187 257 268 266 224 201 198 195 212 206 208 202 197 194 198 203 202 203 211
331 326 307 291 234 173 212 298 3 287 255 229 132 290 330 306 41 266 255 215 228 148 191 111 191 131 247 162 191 193 217 158 143 142 204 155 231 175 256 195 179 265 330 319 257 232 180 117 197 207 232 242 242 235 224 214 253 259 41 172 241 239 237 240 256 250 264 285 151 203 245 269 259 229 208 210 201 208 194 197 211 202 195 204 201 207 205 202
326 325 308 262 222 206 318 320 298 255 276 38 291 329 301 28 288 231 254 253 164 168 171 156 354 112 239 153 225 214 5 115 196 167 211 158 236 192 239 276 234 195 174 209 244 69 212 162 225 204 228 246 240 248 142 192 246 81 238 291 243 250 235 247 239 246 254 259 261 233 222 243 252 257 176 193 213 221 197 199 198 220 209 200 215 224 201 207
326 319 305 258 233 232 268 272 299 277 2 344 3 298 351 348 252 258 261 262 125 188 11 158 142 196 203 179 204 234 192 201 274 138 152 178 224 292 220 223 253 354 189 226 266 155 219 201 202 227 233 231 235 250 136 207 239 271 309 262 266 254 251 238 246 251 254 265 259 254 237 266 258 252 205 182 230 234 222 173 197 209 210 210 192 183 328 253
326 316 301 192 209 217 232 227 241 264 305 336 326 332 282 255 236 230 208 260 130 188 187 95 205 182 195 189 202 186 224 180 34 151 175 205 178 220 262 327 274 226 219 213 243 298 81 152 327 250 233 250 289 30 294 268 257 317 275 257 231 243 233 236 247 258 249 234 235 239 238 233 260 243 239 213 201 263 200 175 190 197 190 183 109 241 230 248
326 318 283 196 227 247 213 228 218 227 268 321 320 301 275 238 239 259 231 42 194 134 186 162 175 157 183 210 190 171 223 173 188 182 174 202 177 217 217 206 241 250 242 224 235 230 184 186 206 210 243 275 280 265 229 253 273 254 236 237 234 228 233 238 243 238 260 259 253 251 237 213 250 233 231 147 128 27 107 148 159 151 179 80 89 272 350 357
329 320 256 200 266 328 249 354 14 328 323 325 299 262 229 247 224 234 244 115 252 141 212 175 184 187 195 212 201 176 207 182 179 191 192 186 190 199 197 246 180 229 225 225 228 251 243 213 201 187 183 251 226 251 208 206 220 230 237 236 242 252 230 240 229 232 230 253 264 250 224 215 235 272 107 124 141 139 205 232 169 183 187 86 316 3 9 0
327 328 233 223 258 258 253 293 320 341 311 285 272 245 235 254 247 231 235 164 180 161 161 282 167 207 207 205 211 190 178 207 166 209 233 203 206 213 202 240 203 288 292 161 283 193 224 239 203 177 185 200 253 238 194 210 200 229 237 236 240 234 235 246 244 243 243 235 224 239 6 254 297 243 95 143 108 108 135 127 103 111 109 36 2 20 29 18
323 310 203 203 221 243 289 316 282 299 284 266 251 232 249 253 251 14 300 217 212 196 163 195 164 217 205 216 199 213 190 188 184 192 206 211 216 214 210 215 249 237 242 248 239 236 263 204 215 197 204 133 236 250 277 236 223 238 252 238 244 269 258 256 257 261 267 299 141 225 188 253 245 62 184 114 151 158 150 150 129 127 126 78 55 29 33 33
316 282 246 212 219 245 246 256 273 260 268 261 236 240 230 236 260 251 217 220 198 204 204 183 218 198 203 223 171 198 270 191 229 210 202 231 212 224 197 203 174 266 245 261 202 258 265 273 138 183 89 197 248 232 269 297 287 241 241 271 238 237 235 263 291 298 305 305 266 181 239 254 301 158 131 156 159 157 151 138 151 137 121 99 89 67 55 51
300 210 197 222 218 197 209 226 226 219 245 249 244 235 235 233 241 207 229 243 234 216 193 186 233 217 208 214 178 224 171 265 176 229 233 228 243 219 189 199 206 241 285 260 8 275 247 259 112 156 194 236 250 9 251 242 256 19 265 231 251 270 260 269 270 236 178 252 252 271 227 237 132 196 160 185 162 153 171 162 165 148 123 107 87 72 64 54
289 185 207 219 215 187 205 226 200 216 242 254 251 247 242 242 255 296 78 228 315 270 227 229 196 235 216 213 209 206 186 216 208 222 217 205 206 210 183 166 337 242 276 312 291 252 286 276 230 276 232 188 277 255 293 238 266 264 242 249 284 273 301 267 271 269 246 255 258 235 252 259 240 247 171 182 204 164 180 186 150 141 142 121 95 83 68 58
302 259 268 235 149 143 202 197 211 236 249 250 245 259 279 276 181 257 30 270 239 235 264 237 206 270 226 223 213 214 173 217 192 214 254 181 254 96 215 204 148 308 305 269 279 76 303 271 259 225 241 141 190 256 245 244 239 259 267 3 289 241 234 224 250 253 266 264 270 246 251 259 255 247 158 200 202 184 188 178 161 172 146 117 106 89 75 62
274 273 243 179 145 184 182 170 222 242 239 240 244 233 233 253 345 263 102 277 304 274 239 231 249 208 255 244 238 231 193 228 203 226 243 186 226 157 237 282 162 182 233 255 249 284 166 269 265 291 251 255 243 227 252 250 205 228 259 268 247 266 267 272 249 281 273 269 268 271 264 261 231 233 141 205 207 179 185 173 183 163 137 118 101 94 85 71
253 237 229 114 137 156 146 193 229 234 237 241 240 248 257 257 207 217 233 250 230 239 239 270 230 244 218 245 247 235 205 247 227 233 251 160 237 139 235 180 288 153 93 289 275 74 275 235 276 277 210 251 253 227 247 245 258 214 229 246 243 237 271 285 271 255 258 267 266 280 270 254 309 51 157 206 204 189 183 195 162 142 127 113 103 95 88 86
267 270 104 143 105 142 163 214 226 225 235 238 248 273 282 250 226 197 243 238 274 292 302 293 262 234 237 240 233 237 248 222 249 257 236 226 207 175 128 184 187 242 171 233 252 231 242 246 258 269 264 234 242 311 355 329 335 298 291 275 268 261 248 246 255 252 260 267 271 267 273 285 96 237 258 292 235 183 178 179 149 149 133 117 107 101 104 99
262 239 132 115 101 187 204 220 224 239 244 245 250 245 249 30 266 240 206 208 245 261 192 272 280 297 273 261 266 238 249 254 243 243 239 263 200 249 106 94 185 328 286 244 258 43 344 330 282 262 257 260 279 132 268 301 294 279 284 278 286 291 282 271 271 263 277 265 282 278 281 277 356 18 262 240 193 173 171 160 156 144 135 126 117 112 106 105
226 256 106 166 127 223 217 238 241 235 236 249 248 251 216 242 260 242 246 204 226 226 263 213 252 241 244 270 253 262 237 256 260 247 265 221 53 82 109 130 102 216 263 264 285 143 125 252 255 258 262 262 263 270 209 205 273 271 255 256 259 262 273 273 272 293 289 290 278 275 263 349 73 51 358 60 161 181 166 183 159 145 141 133 128 126 122 117
303 290 153 129 191 209 234 238 237 232 228 239 234 259 132 284 240 226 234 211 245 209 227 242 229 256 283 199 273 266 255 263 230 266 251 242 157 107 114 120 189 236 225 7 313 79 263 200 239 263 271 267 250 226 236 226 250 255 257 254 250 254 265 284 292 291 273 261 269 276 272 266 127 150 124 142 149 167 172 176 165 153 153 144 138 132 127 124
293 259 269 164 157 209 231 235 253 263 249 235 227 243 219 220 229 319 312 295 339 270 304 266 278 4 229 228 257 256 265 276 272 211 276 324 102 124 105 212 158 264 29 41 338 328 253 288 290 270 259 258 249 246 256 255 238 289 273 245 246 279 282 278 269 265 263 264 266 261 269 328 126 208 210 186 197 190 184 179 164 165 164 157 145 137 135 130
263 264 181 197 202 201 243 280 284 272 267 259 254 257 237 227 156 234 262 253 255 305 259 295 343 251 270 264 250 257 255 233 241 256 217 234 171 165 137 185 216 309 71 48 327 263 277 268 258 260 268 267 277 288 310 306 276 264 290 297 263 251 263 273 281 274 264 280 270 262 269 280 239 191 206 214 205 210 189 197 205 173 166 155 143 146 143 139
305 322 349 326 328 225 245 236 245 236 255 260 244 228 239 247 236 176 191 260 167 263 258 247 266 246 250 266 265 261 250 258 215 238 251 254 228 134 140 234 180 89 98 159 221 271 258 263 257 263 262 266 279 285 288 288 281 277 263 262 270 269 265 252 250 266 289 287 269 266 270 269 259 259 201 204 232 254 220 209 213 187 171 163 162 159 149 154
298 51 331 38 300 29 270 141 337 316 339 245 248 357 268 260 235 234 149 248 6 223 274 205 238 244 250 242 248 249 257 251 253 233 249 245 269 128 201 184 236 139 183 231 173 240 261 257 256 257 262 268 273 281 281 281 280 281 281 279 273 268 265 265 264 260 261 262 271 287 291 291 295 294 308 271 239 227 247 227 226 210 186 190 184 177 185 179
11 349 66 336 273 45 349 354 315 320 348 337 340 240 249 263 249 249 291 330 227 195 238 264 266 266 259 264 259 260 244 255 241 248 244 249 251 252 235 168 212 169 203 240 230 146 282 262 268 265 267 263 258 252 253 259 266 271 265 257 255 256 258 261 262 264 266 264 264 271 276 278 277 272 273 275 287 283 238 238 234 224 212 213 203 209 207 208
32 347 3 339 285 36 346 311 300 273 244 76 268 12 329 272 257 221 235 307 298 293 348 265 242 236 256 268 258 273 354 343 342 296 296 316 271 272 276 271 265 184 253 238 223 176 233 256 282 277 282 276 279 285 282 274 275 267 263 260 258 260 264 260 261 258 260 262 266 269 274 274 275 285 284 284 279 264 265 244 236 238 230 223 218 217 225 223
338 347 332 317 296 33 299 288 278 281 248 174 270 165 275 352 230 295 71 353 22 286 333 327 323 313 269 268 300 41 24 6 20 31 336 273 266 301 284 267 307 277 229 239 236 230 199 274 280 276 274 269 269 272 273 275 267 264 263 262 259 259 259 259 262 268 274 274 277 283 276 272 278 269 260 257 257 259 249 245 237 237 228 230 229 228 228 219
342 11 297 300 309 37 292 130 218 237 235 53 355 25 302 209 311 350 37 336 26 17 354 338 326 286 270 249 80 12 2 337 349 343 325 305 278 265 263 274 274 280 270 261 250 252 245 264 268 269 267 268 271 274 276 279 293 284 266 268 275 271 272 272 268 267 260 265 267 265 271 284 280 275 290 289 276 273 264 262 260 244 244 238 232 229 224 211